THY9704 DGAA-LTFM

Flight info

Callsign THY9704
Flight time 6h 6m
Altitude 39000
Route LITEX1D LITEX UA603 TAMIL UG855 NY DCT DAMNA UQ594 OSLEK UT258 ERKEL/N0485F400 UR978 BERTI/N0481F410 UB727 IMN M600 ZAW/N0483F400 M600 SARKI/N0481F410 DCT VESOD/N0481F400 DCT INROF DCT RUTOM/N0482F410 DCT ELPIS DCT PEREN UN644 DIGTI UT162 DRAMO
Aircraft A359/H-SDE2E3GHIJ3J4J5LM1ORWXY/LB1D1

Departure

Time 2026-05-05 10:31
Airport Kotoka International Airport (DGAA)

Arrival

Time 2026-05-05 16:38
Airport İstanbul Airport (LTFM)
Time Latitude Longitude Altitude Speed Heading
2026-05-05 10:02 5.60223 -0.17164 218 ft 0 kts 290°
2026-05-05 10:20 5.60219 -0.17155 218 ft 3 kts 290°
2026-05-05 10:21 5.60211 -0.17136 224 ft 3 kts 308°
2026-05-05 10:21 5.60196 -0.17121 225 ft 3 kts 329°
2026-05-05 10:21 5.60177 -0.17113 216 ft 3 kts 351°
2026-05-05 10:21 5.60157 -0.17113 216 ft 3 kts 12°
2026-05-05 10:22 5.60146 -0.17116 215 ft 0 kts 21°
2026-05-05 10:25 5.60173 -0.17100 222 ft 11 kts 35°
2026-05-05 10:25 5.60237 -0.17055 222 ft 12 kts 32°
2026-05-05 10:26 5.60308 -0.17019 226 ft 11 kts 24°
2026-05-05 10:26 5.60379 -0.16987 224 ft 11 kts 24°
2026-05-05 10:26 5.60452 -0.16958 227 ft 11 kts 21°
2026-05-05 10:26 5.60525 -0.16929 227 ft 11 kts 22°
2026-05-05 10:27 5.60603 -0.16897 227 ft 16 kts 21°
2026-05-05 10:27 5.60735 -0.16842 228 ft 23 kts 23°
2026-05-05 10:27 5.60891 -0.16776 229 ft 25 kts 23°
2026-05-05 10:27 5.61063 -0.16705 228 ft 28 kts 21°
2026-05-05 10:28 5.61255 -0.16626 226 ft 31 kts 22°
2026-05-05 10:28 5.61376 -0.16577 228 ft 12 kts 22°
2026-05-05 10:28 5.61466 -0.16541 225 ft 17 kts 22°
2026-05-05 10:28 5.61586 -0.16487 225 ft 21 kts 36°
2026-05-05 10:29 5.61619 -0.16428 223 ft 0 kts 94°
2026-05-05 10:29 5.61619 -0.16427 223 ft 1 kts 94°
2026-05-05 10:29 5.61610 -0.16389 222 ft 7 kts 116°
2026-05-05 10:29 5.61577 -0.16352 224 ft 7 kts 140°
2026-05-05 10:30 5.61538 -0.16328 227 ft 6 kts 156°
2026-05-05 10:30 5.61503 -0.16325 222 ft 4 kts 194°
2026-05-05 10:30 5.61472 -0.16335 227 ft 5 kts 199°
2026-05-05 10:30 5.61392 -0.16363 228 ft 34 kts 200°
2026-05-05 10:31 5.60963 -0.16542 227 ft 98 kts 202°
2026-05-05 10:31 5.60153 -0.16874 217 ft 152 kts 201°
2026-05-05 10:31 5.59070 -0.17317 465 ft 180 kts 200°
2026-05-05 10:31 5.57761 -0.17415 846 ft 202 kts 162°
2026-05-05 10:32 5.56719 -0.16519 1659 ft 205 kts 122°
2026-05-05 10:32 5.56457 -0.15075 2047 ft 221 kts 85°
2026-05-05 10:32 5.56752 -0.13523 2428 ft 234 kts 81°
2026-05-05 10:32 5.56997 -0.11843 2689 ft 252 kts 85°
2026-05-05 10:33 5.57375 -0.10115 3145 ft 261 kts 69°
2026-05-05 10:33 5.58435 -0.08616 3699 ft 265 kts 41°
2026-05-05 10:33 5.60025 -0.07733 4347 ft 266 kts 24°
2026-05-05 10:33 5.61758 -0.07048 4957 ft 268 kts 23°
2026-05-05 10:34 5.63504 -0.06362 5519 ft 269 kts 24°
2026-05-05 10:34 5.65246 -0.05665 6082 ft 271 kts 25°
2026-05-05 10:34 5.67003 -0.04952 6620 ft 273 kts 25°
2026-05-05 10:34 5.68762 -0.04235 7154 ft 274 kts 25°
2026-05-05 10:35 5.69934 -0.03756 7496 ft 275 kts 26°
2026-05-05 10:35 5.71715 -0.03026 8053 ft 276 kts 26°
2026-05-05 10:35 5.73495 -0.02295 8658 ft 277 kts 27°
2026-05-05 10:35 5.75283 -0.01563 9211 ft 278 kts 27°
2026-05-05 10:36 5.77668 -0.00585 9962 ft 280 kts 28°
2026-05-05 10:36 5.78893 -0.00077 10212 ft 285 kts 28°
2026-05-05 10:36 5.80768 0.00702 10442 ft 298 kts 27°
2026-05-05 10:36 5.82724 0.01510 10660 ft 310 kts 27°
2026-05-05 10:37 5.84737 0.02344 10858 ft 322 kts 27°
2026-05-05 10:37 5.86874 0.03227 11076 ft 333 kts 27°
2026-05-05 10:37 5.89027 0.04112 11277 ft 343 kts 27°
2026-05-05 10:37 5.91268 0.05029 11460 ft 353 kts 26°
2026-05-05 10:38 5.93657 0.05746 11699 ft 366 kts 14°
2026-05-05 10:38 5.96239 0.05844 12024 ft 378 kts 359°
2026-05-05 10:38 5.98848 0.05340 12378 ft 385 kts 351°
2026-05-05 10:38 6.01459 0.04689 12729 ft 388 kts 351°
2026-05-05 10:39 6.04089 0.04029 13086 ft 390 kts 351°
2026-05-05 10:39 6.06729 0.03374 13459 ft 392 kts 351°
2026-05-05 10:39 6.09393 0.02718 13795 ft 395 kts 351°
2026-05-05 10:39 6.12068 0.02062 14114 ft 396 kts 351°
2026-05-05 10:40 6.14759 0.01405 14454 ft 398 kts 351°
2026-05-05 10:40 6.17458 0.00746 14793 ft 400 kts 351°
2026-05-05 10:40 6.20138 0.00090 15128 ft 401 kts 351°
2026-05-05 10:40 6.22857 -0.00574 15447 ft 403 kts 350°
2026-05-05 10:41 6.25624 -0.01248 15759 ft 406 kts 351°
2026-05-05 10:41 6.28345 -0.01906 16064 ft 407 kts 350°
2026-05-05 10:41 6.31143 -0.02582 16397 ft 409 kts 350°
2026-05-05 10:41 6.33884 -0.03247 16723 ft 411 kts 350°
2026-05-05 10:42 6.39472 -0.04614 17361 ft 415 kts 349°
2026-05-05 10:42 6.42280 -0.05303 17672 ft 417 kts 349°
2026-05-05 10:42 6.45108 -0.05995 17983 ft 419 kts 349°
2026-05-05 10:43 6.47950 -0.06690 18284 ft 421 kts 348°
2026-05-05 10:43 6.50801 -0.07386 18544 ft 422 kts 348°
2026-05-05 10:43 6.53656 -0.08083 18812 ft 424 kts 348°
2026-05-05 10:43 6.56531 -0.08785 19068 ft 425 kts 348°
2026-05-05 10:44 6.59411 -0.09488 19335 ft 427 kts 348°
2026-05-05 10:44 6.62311 -0.10140 19594 ft 427 kts 352°
2026-05-05 10:44 6.65265 -0.10441 19850 ft 427 kts
2026-05-05 10:44 6.68242 -0.10440 20109 ft 427 kts
2026-05-05 10:45 6.71219 -0.10306 20359 ft 429 kts
2026-05-05 10:45 6.74152 -0.10123 20603 ft 430 kts
2026-05-05 10:45 6.77145 -0.09925 20855 ft 431 kts
2026-05-05 10:45 6.80146 -0.09737 21094 ft 433 kts
2026-05-05 10:46 6.83204 -0.09560 21341 ft 435 kts
2026-05-05 10:46 6.86189 -0.09400 21577 ft 436 kts
2026-05-05 10:46 6.89223 -0.09246 21819 ft 437 kts
2026-05-05 10:46 6.92267 -0.09097 22044 ft 439 kts
2026-05-05 10:47 6.95327 -0.08948 22292 ft 440 kts
2026-05-05 10:47 6.98389 -0.08799 22522 ft 442 kts
2026-05-05 10:47 7.01466 -0.08649 22746 ft 443 kts
2026-05-05 10:47 7.04548 -0.08498 22975 ft 444 kts
2026-05-05 10:48 7.07641 -0.08347 23217 ft 445 kts
2026-05-05 10:48 7.10748 -0.08194 23438 ft 447 kts
2026-05-05 10:48 7.13854 -0.08040 23631 ft 448 kts
2026-05-05 10:48 7.16970 -0.07886 23821 ft 449 kts
2026-05-05 10:49 7.20097 -0.07732 24012 ft 450 kts
2026-05-05 10:49 7.23234 -0.07578 24173 ft 452 kts
2026-05-05 10:49 7.26379 -0.07423 24347 ft 453 kts
2026-05-05 10:49 7.29525 -0.07268 24518 ft 454 kts
2026-05-05 10:50 7.32684 -0.07112 24692 ft 455 kts
2026-05-05 10:50 7.35849 -0.06955 24867 ft 456 kts
2026-05-05 10:50 7.39026 -0.06799 25052 ft 457 kts
2026-05-05 10:50 7.42178 -0.06644 25216 ft 458 kts
2026-05-05 10:51 7.45400 -0.06486 25387 ft 459 kts
2026-05-05 10:51 7.48561 -0.06330 25562 ft 461 kts
2026-05-05 10:51 7.51760 -0.06172 25724 ft 462 kts
2026-05-05 10:51 7.54975 -0.06013 25892 ft 463 kts
2026-05-05 10:52 7.58196 -0.05854 26080 ft 464 kts
2026-05-05 10:52 7.61423 -0.05694 26260 ft 465 kts
2026-05-05 10:52 7.64667 -0.05533 26419 ft 466 kts
2026-05-05 10:52 7.67919 -0.05371 26606 ft 467 kts
2026-05-05 10:53 7.71167 -0.05211 26786 ft 468 kts
2026-05-05 10:53 7.74431 -0.05050 26961 ft 469 kts
2026-05-05 10:53 7.77699 -0.04889 27114 ft 470 kts
2026-05-05 10:53 7.80974 -0.04727 27324 ft 471 kts
2026-05-05 10:54 7.84254 -0.04565 27502 ft 472 kts
2026-05-05 10:54 7.87549 -0.04403 27672 ft 474 kts
2026-05-05 10:54 7.90798 -0.04244 27854 ft 475 kts
2026-05-05 10:54 7.94101 -0.04081 28031 ft 476 kts
2026-05-05 10:55 7.97409 -0.03917 28207 ft 477 kts
2026-05-05 10:55 8.00729 -0.03753 28379 ft 478 kts
2026-05-05 10:55 8.04055 -0.03587 28559 ft 479 kts
2026-05-05 10:55 8.07383 -0.03422 28730 ft 480 kts
2026-05-05 10:56 8.10764 -0.03254 28900 ft 481 kts
2026-05-05 10:56 8.14067 -0.03090 29075 ft 482 kts
2026-05-05 10:56 8.17419 -0.02923 29241 ft 483 kts
2026-05-05 10:56 8.20786 -0.02757 29417 ft 484 kts
2026-05-05 10:57 8.24142 -0.02590 29584 ft 485 kts
2026-05-05 10:57 8.27535 -0.02423 29757 ft 486 kts
2026-05-05 10:57 8.30915 -0.02256 29924 ft 487 kts
2026-05-05 10:57 8.34303 -0.02088 30080 ft 488 kts
2026-05-05 10:58 8.37698 -0.01919 30220 ft 489 kts
2026-05-05 10:58 8.41099 -0.01750 30367 ft 489 kts
2026-05-05 10:58 8.44500 -0.01582 30505 ft 490 kts
2026-05-05 10:58 8.47917 -0.01412 30629 ft 492 kts
2026-05-05 10:59 8.51334 -0.01243 30773 ft 493 kts
2026-05-05 10:59 8.54760 -0.01072 30904 ft 494 kts
2026-05-05 10:59 8.58199 -0.00902 31033 ft 495 kts
2026-05-05 10:59 8.61644 -0.00731 31174 ft 496 kts
2026-05-05 11:00 8.65098 -0.00559 31313 ft 497 kts
2026-05-05 11:00 8.68554 -0.00462 31437 ft 498 kts
2026-05-05 11:00 8.72031 -0.00484 31585 ft 499 kts
2026-05-05 11:00 8.75455 -0.00556 31759 ft 499 kts 360°
2026-05-05 11:01 8.78928 -0.00637 31951 ft 498 kts 360°
2026-05-05 11:01 8.82392 -0.00707 32137 ft 498 kts
2026-05-05 11:01 8.85860 -0.00763 32322 ft 498 kts
2026-05-05 11:01 8.89334 -0.00805 32502 ft 498 kts
2026-05-05 11:02 8.92787 -0.00839 32710 ft 497 kts
2026-05-05 11:02 8.96248 -0.00868 32886 ft 497 kts
2026-05-05 11:02 8.99700 -0.00896 33078 ft 497 kts
2026-05-05 11:02 9.03166 -0.00923 33286 ft 496 kts
2026-05-05 11:03 9.06608 -0.00950 33478 ft 497 kts
2026-05-05 11:03 9.10077 -0.00979 33713 ft 496 kts
2026-05-05 11:03 9.13526 -0.01005 33919 ft 496 kts
2026-05-05 11:03 9.16964 -0.01032 34107 ft 495 kts
2026-05-05 11:04 9.20410 -0.01062 34372 ft 493 kts
2026-05-05 11:04 9.23836 -0.01093 34654 ft 491 kts
2026-05-05 11:04 9.27243 -0.01126 34900 ft 490 kts
2026-05-05 11:04 9.30653 -0.01158 35140 ft 489 kts 360°
2026-05-05 11:05 9.34005 -0.01188 35377 ft 488 kts 360°
2026-05-05 11:05 9.37444 -0.01219 35602 ft 487 kts 360°
2026-05-05 11:05 9.40791 -0.01249 35831 ft 487 kts 360°
2026-05-05 11:05 9.44183 -0.01279 36059 ft 486 kts 360°
2026-05-05 11:06 9.47561 -0.01310 36292 ft 486 kts 359°
2026-05-05 11:06 9.50942 -0.01341 36525 ft 485 kts 359°
2026-05-05 11:06 9.54313 -0.01371 36744 ft 485 kts 359°
2026-05-05 11:06 9.57690 -0.01400 36984 ft 484 kts 359°
2026-05-05 11:07 9.61063 -0.01432 37229 ft 483 kts 359°
2026-05-05 11:07 9.64416 -0.01464 37459 ft 483 kts 359°
2026-05-05 11:07 9.67769 -0.01497 37684 ft 482 kts 359°
2026-05-05 11:07 9.71127 -0.01530 37918 ft 481 kts 359°
2026-05-05 11:08 9.74476 -0.01562 38172 ft 480 kts 359°
2026-05-05 11:08 9.77768 -0.01593 38397 ft 479 kts 359°
2026-05-05 11:08 9.81091 -0.01625 38641 ft 478 kts 359°
2026-05-05 11:08 9.84413 -0.01656 38845 ft 477 kts 359°
2026-05-05 11:09 9.87725 -0.01687 38902 ft 478 kts 359°
2026-05-05 11:09 9.94383 -0.01749 38910 ft 477 kts 359°
2026-05-05 11:10 10.01035 -0.01812 38914 ft 477 kts 359°
2026-05-05 11:10 10.07665 -0.01875 38908 ft 477 kts 359°
2026-05-05 11:11 10.14298 -0.01937 38912 ft 477 kts 359°
2026-05-05 11:11 10.20935 -0.01999 38914 ft 476 kts 359°
2026-05-05 11:12 10.27564 -0.02061 38911 ft 476 kts 359°
2026-05-05 11:12 10.34139 -0.02111 38913 ft 476 kts 359°
2026-05-05 11:13 10.40764 -0.02179 38919 ft 475 kts 359°
2026-05-05 11:13 10.47380 -0.02247 38919 ft 475 kts 359°
2026-05-05 11:14 10.53992 -0.02312 38918 ft 475 kts 359°
2026-05-05 11:14 10.60564 -0.01726 38922 ft 476 kts 12°
2026-05-05 11:15 10.66711 0.00790 38926 ft 480 kts 30°
2026-05-05 11:15 10.71914 0.05087 38923 ft 484 kts 41°
2026-05-05 11:16 10.76774 0.09868 38921 ft 486 kts 43°
2026-05-05 11:16 10.81574 0.14647 38919 ft 486 kts 43°
2026-05-05 11:17 10.86448 0.19432 38921 ft 487 kts 42°
2026-05-05 11:17 10.91337 0.24192 38921 ft 487 kts 42°
2026-05-05 11:18 10.96236 0.28956 38919 ft 487 kts 42°
2026-05-05 11:18 11.01310 0.33523 38917 ft 486 kts 36°
2026-05-05 11:19 11.06712 0.37668 38918 ft 486 kts 35°
2026-05-05 11:19 11.12158 0.41742 38917 ft 486 kts 35°
2026-05-05 11:20 11.17616 0.45816 38914 ft 486 kts 35°
2026-05-05 11:20 11.22151 0.49211 38911 ft 487 kts 35°
2026-05-05 11:21 11.27607 0.53303 38911 ft 487 kts 35°
2026-05-05 11:21 11.33944 0.58063 38909 ft 488 kts 35°
2026-05-05 11:22 11.38540 0.61517 38907 ft 490 kts 34°
2026-05-05 11:22 11.43997 0.65618 38904 ft 490 kts 34°
2026-05-05 11:23 11.49498 0.69754 38906 ft 490 kts 34°
2026-05-05 11:23 11.54988 0.73885 38905 ft 491 kts 34°
2026-05-05 11:24 11.60484 0.78022 38907 ft 491 kts 34°
2026-05-05 11:24 11.65989 0.82168 38905 ft 491 kts 34°
2026-05-05 11:25 11.71485 0.86309 38911 ft 492 kts 34°
2026-05-05 11:25 11.76990 0.90458 38903 ft 492 kts 34°
2026-05-05 11:26 11.82462 0.94586 38904 ft 492 kts 34°
2026-05-05 11:26 11.88005 0.98769 38904 ft 492 kts 34°
2026-05-05 11:27 11.93504 1.02921 38905 ft 492 kts 34°
2026-05-05 11:27 11.98971 1.07051 38904 ft 492 kts 34°
2026-05-05 11:28 12.04477 1.11212 38903 ft 492 kts 34°
2026-05-05 11:28 12.09979 1.15373 38906 ft 492 kts 34°
2026-05-05 11:29 12.15479 1.19540 38908 ft 492 kts 34°
2026-05-05 11:29 12.20969 1.23705 38904 ft 492 kts 34°
2026-05-05 11:30 12.26456 1.27871 38906 ft 491 kts 34°
2026-05-05 11:30 12.31917 1.32019 38903 ft 491 kts 34°
2026-05-05 11:31 12.37408 1.36191 38904 ft 491 kts 34°
2026-05-05 11:31 12.42892 1.40360 38905 ft 491 kts 34°
2026-05-05 11:32 12.48377 1.44532 38898 ft 491 kts 34°
2026-05-05 11:32 12.53869 1.48711 38897 ft 491 kts 34°
2026-05-05 11:33 12.59349 1.52884 38896 ft 491 kts 34°
2026-05-05 11:33 12.64833 1.57061 38895 ft 491 kts 34°
2026-05-05 11:34 12.70273 1.61208 38889 ft 491 kts 34°
2026-05-05 11:34 12.75747 1.65384 38886 ft 491 kts 33°
2026-05-05 11:35 12.81224 1.69563 38887 ft 491 kts 33°
2026-05-05 11:35 12.86698 1.73742 38884 ft 491 kts 33°
2026-05-05 11:36 12.92165 1.77919 38885 ft 491 kts 33°
2026-05-05 11:36 12.97649 1.82110 38884 ft 491 kts 33°
2026-05-05 11:37 13.03122 1.86297 38886 ft 491 kts 33°
2026-05-05 11:37 13.08604 1.90492 38883 ft 491 kts 33°
2026-05-05 11:38 13.14085 1.94688 38884 ft 491 kts 33°
2026-05-05 11:38 13.19520 1.98853 38888 ft 491 kts 33°
2026-05-05 11:39 13.24997 2.03051 38892 ft 491 kts 33°
2026-05-05 11:39 13.30480 2.07256 38899 ft 492 kts 33°
2026-05-05 11:40 13.35963 2.11464 38909 ft 492 kts 32°
2026-05-05 11:40 13.41443 2.15672 38911 ft 492 kts 32°
2026-05-05 11:41 13.46810 2.20046 38913 ft 496 kts 39°
2026-05-05 11:41 13.51172 2.25631 38911 ft 505 kts 52°
2026-05-05 11:42 13.54996 2.31694 38905 ft 507 kts 53°
2026-05-05 11:42 13.58758 2.37856 38896 ft 508 kts 53°
2026-05-05 11:43 13.62512 2.43956 38885 ft 508 kts 53°
2026-05-05 11:43 13.66307 2.50074 38876 ft 508 kts 53°
2026-05-05 11:44 13.70115 2.56197 38869 ft 508 kts 53°
2026-05-05 11:44 13.73922 2.62321 38868 ft 508 kts 53°
2026-05-05 11:45 13.77725 2.68448 38868 ft 508 kts 53°
2026-05-05 11:45 13.81529 2.74581 38864 ft 508 kts 53°
2026-05-05 11:46 13.85326 2.80709 38862 ft 508 kts 53°
2026-05-05 11:46 13.89126 2.86847 38857 ft 508 kts 53°
2026-05-05 11:47 13.92920 2.92978 38858 ft 508 kts 53°
2026-05-05 11:47 13.96719 2.99121 38851 ft 508 kts 53°
2026-05-05 11:48 14.02383 3.08290 38848 ft 508 kts 52°
2026-05-05 11:48 14.06177 3.14437 38844 ft 508 kts 52°
2026-05-05 11:49 14.09964 3.20577 38842 ft 508 kts 52°
2026-05-05 11:49 14.13751 3.26721 38841 ft 508 kts 52°
2026-05-05 11:50 14.17535 3.32865 38836 ft 508 kts 52°
2026-05-05 11:50 14.21328 3.39030 38833 ft 508 kts 52°
2026-05-05 11:51 14.25087 3.45142 38829 ft 508 kts 52°
2026-05-05 11:51 14.28876 3.51308 38834 ft 509 kts 52°
2026-05-05 11:52 14.32665 3.57479 38827 ft 509 kts 52°
2026-05-05 11:52 14.36446 3.63641 38824 ft 509 kts 52°
2026-05-05 11:53 14.40236 3.69824 38822 ft 509 kts 52°
2026-05-05 11:53 14.44019 3.75998 38814 ft 509 kts 52°
2026-05-05 11:54 14.47806 3.82186 38818 ft 510 kts 52°
2026-05-05 11:54 14.51567 3.88334 38818 ft 510 kts 52°
2026-05-05 11:55 14.55351 3.94526 38818 ft 510 kts 52°
2026-05-05 11:55 14.59133 4.00718 38817 ft 510 kts 52°
2026-05-05 11:56 14.62916 4.06918 38798 ft 510 kts 52°
2026-05-05 11:56 14.66697 4.13118 38816 ft 510 kts 52°
2026-05-05 11:57 14.70490 4.19343 38813 ft 510 kts 52°
2026-05-05 11:57 14.74269 4.25551 38795 ft 511 kts 52°
2026-05-05 11:58 14.78055 4.31774 38798 ft 511 kts 53°
2026-05-05 11:58 14.81837 4.37996 38812 ft 511 kts 53°
2026-05-05 11:59 14.85622 4.44227 38796 ft 511 kts 53°
2026-05-05 11:59 14.89382 4.50423 38797 ft 512 kts 53°
2026-05-05 12:00 14.93163 4.56659 38807 ft 512 kts 53°
2026-05-05 12:00 14.96944 4.62906 38811 ft 512 kts 53°
2026-05-05 12:01 15.00717 4.69171 38797 ft 513 kts 53°
2026-05-05 12:01 15.04484 4.75432 38798 ft 513 kts 53°
2026-05-05 12:02 15.08253 4.81698 38802 ft 513 kts 53°
2026-05-05 12:02 15.12027 4.87975 38805 ft 513 kts 53°
2026-05-05 12:03 15.15800 4.94254 38800 ft 513 kts 53°
2026-05-05 12:03 15.19546 5.00495 38798 ft 514 kts 53°
2026-05-05 12:04 15.23313 5.06777 38800 ft 514 kts 53°
2026-05-05 12:04 15.27087 5.13065 38802 ft 514 kts 53°
2026-05-05 12:05 15.30850 5.19350 38795 ft 514 kts 53°
2026-05-05 12:05 15.34616 5.25649 38799 ft 514 kts 53°
2026-05-05 12:06 15.38384 5.31954 38799 ft 514 kts 53°
2026-05-05 12:06 15.42154 5.38265 38800 ft 514 kts 53°
2026-05-05 12:07 15.45917 5.44570 38797 ft 514 kts 53°
2026-05-05 12:07 15.49044 5.49812 38795 ft 514 kts 53°
2026-05-05 12:08 15.52807 5.56127 38798 ft 515 kts 53°
2026-05-05 12:08 15.56578 5.62459 38797 ft 515 kts 53°
2026-05-05 12:09 15.60314 5.68740 38796 ft 515 kts 53°
2026-05-05 12:09 15.64097 5.75103 38791 ft 515 kts 53°
2026-05-05 12:10 15.67858 5.81435 38788 ft 515 kts 53°
2026-05-05 12:10 15.71597 5.87735 38789 ft 515 kts 53°
2026-05-05 12:11 15.75349 5.94065 38785 ft 516 kts 53°
2026-05-05 12:11 15.79111 6.00415 38786 ft 516 kts 53°
2026-05-05 12:12 15.82870 6.06767 38787 ft 516 kts 54°
2026-05-05 12:12 15.86633 6.13129 38785 ft 516 kts 54°
2026-05-05 12:13 15.90370 6.19453 38785 ft 516 kts 54°
2026-05-05 12:13 15.94130 6.25822 38785 ft 517 kts 54°
2026-05-05 12:14 15.98311 6.31806 38789 ft 506 kts 40°
2026-05-05 12:14 16.03816 6.36123 38791 ft 489 kts 21°
2026-05-05 12:15 16.10129 6.38451 38786 ft 478 kts
2026-05-05 12:15 16.16575 6.40153 38789 ft 477 kts
2026-05-05 12:16 16.23034 6.41782 38789 ft 478 kts
2026-05-05 12:16 16.29500 6.43448 38787 ft 478 kts
2026-05-05 12:17 16.35959 6.45140 38789 ft 478 kts
2026-05-05 12:17 16.42372 6.46829 38789 ft 479 kts
2026-05-05 12:18 16.48832 6.48532 38792 ft 479 kts
2026-05-05 12:18 16.55298 6.50236 38790 ft 479 kts
2026-05-05 12:19 16.61767 6.51942 38789 ft 480 kts
2026-05-05 12:19 16.68243 6.53650 38789 ft 480 kts
2026-05-05 12:20 16.74715 6.55359 38791 ft 480 kts
2026-05-05 12:20 16.81196 6.57071 38787 ft 480 kts
2026-05-05 12:21 16.87683 6.58786 38785 ft 481 kts
2026-05-05 12:21 16.94174 6.60503 38787 ft 481 kts
2026-05-05 12:22 17.00662 6.62221 38782 ft 481 kts
2026-05-05 12:22 17.07153 6.63940 38780 ft 482 kts
2026-05-05 12:23 17.13657 6.65665 38778 ft 482 kts
2026-05-05 12:23 17.20155 6.67389 38773 ft 482 kts
2026-05-05 12:24 17.26619 6.69105 38774 ft 482 kts
2026-05-05 12:24 17.33136 6.70837 38776 ft 483 kts
2026-05-05 12:25 17.39640 6.72566 38772 ft 483 kts
2026-05-05 12:25 17.46164 6.74302 38773 ft 483 kts
2026-05-05 12:26 17.52680 6.76038 38773 ft 483 kts
2026-05-05 12:26 17.59193 6.77773 38774 ft 483 kts
2026-05-05 12:27 17.65722 6.79514 38772 ft 484 kts
2026-05-05 12:27 17.72262 6.81260 38777 ft 485 kts
2026-05-05 12:28 17.78799 6.83005 38775 ft 485 kts
2026-05-05 12:28 17.85338 6.84753 38779 ft 485 kts
2026-05-05 12:29 17.91898 6.86508 38777 ft 486 kts
2026-05-05 12:29 17.98453 6.88263 38780 ft 486 kts
2026-05-05 12:30 18.04972 6.90010 38780 ft 486 kts
2026-05-05 12:30 18.11529 6.91768 38776 ft 487 kts
2026-05-05 12:31 18.18096 6.93530 38779 ft 487 kts
2026-05-05 12:31 18.24675 6.95297 38779 ft 487 kts
2026-05-05 12:32 18.31244 6.97062 38775 ft 488 kts
2026-05-05 12:32 18.37836 6.98835 38779 ft 488 kts
2026-05-05 12:33 18.44417 7.00606 38777 ft 489 kts
2026-05-05 12:33 18.51006 7.02381 38778 ft 489 kts
2026-05-05 12:34 18.57613 7.04162 38779 ft 489 kts
2026-05-05 12:34 18.64210 7.05942 38778 ft 490 kts
2026-05-05 12:35 18.70784 7.07717 38777 ft 490 kts
2026-05-05 12:35 18.77393 7.09503 38779 ft 491 kts
2026-05-05 12:36 18.84019 7.11295 38779 ft 491 kts
2026-05-05 12:36 18.90638 7.13087 38775 ft 491 kts
2026-05-05 12:37 18.97258 7.14882 38781 ft 492 kts
2026-05-05 12:37 19.03902 7.16699 38778 ft 492 kts
2026-05-05 12:38 19.10527 7.18516 38777 ft 492 kts
2026-05-05 12:38 19.17170 7.20337 38773 ft 493 kts
2026-05-05 12:39 19.23812 7.22157 38781 ft 493 kts
2026-05-05 12:39 19.30411 7.23967 38774 ft 493 kts
2026-05-05 12:40 19.37054 7.25792 38780 ft 493 kts
2026-05-05 12:40 19.43707 7.27620 38775 ft 494 kts
2026-05-05 12:41 19.50363 7.29451 38776 ft 494 kts
2026-05-05 12:41 19.57019 7.31283 38774 ft 494 kts
2026-05-05 12:42 19.63674 7.33116 38779 ft 494 kts
2026-05-05 12:42 19.70339 7.34954 38781 ft 495 kts
2026-05-05 12:43 19.77008 7.36795 38777 ft 495 kts
2026-05-05 12:43 19.83679 7.38637 38778 ft 495 kts
2026-05-05 12:44 19.90360 7.40484 38779 ft 496 kts
2026-05-05 12:44 19.97054 7.42335 38779 ft 497 kts
2026-05-05 12:45 20.03725 7.44183 38781 ft 499 kts
2026-05-05 12:45 20.10490 7.46058 38784 ft 500 kts
2026-05-05 12:46 20.17194 7.47918 38785 ft 501 kts
2026-05-05 12:46 20.23961 7.49798 38785 ft 502 kts
2026-05-05 12:47 20.30723 7.51678 38782 ft 501 kts
2026-05-05 12:47 20.37477 7.53557 38788 ft 501 kts
2026-05-05 12:48 20.44197 7.55428 38790 ft 501 kts
2026-05-05 12:48 20.50943 7.57308 38791 ft 501 kts
2026-05-05 12:49 20.57742 7.59204 38790 ft 502 kts
2026-05-05 12:49 20.64453 7.61078 38792 ft 502 kts
2026-05-05 12:50 20.71212 7.62967 38793 ft 501 kts
2026-05-05 12:50 20.77961 7.64855 38794 ft 501 kts
2026-05-05 12:51 20.84718 7.66746 38797 ft 501 kts
2026-05-05 12:51 20.90325 7.68318 38794 ft 501 kts
2026-05-05 12:52 20.98238 7.69622 38928 ft 488 kts 353°
2026-05-05 12:52 21.00506 7.69488 39096 ft 483 kts 349°
2026-05-05 12:52 21.03839 7.69138 39369 ft 479 kts 348°
2026-05-05 12:53 21.08207 7.68566 39668 ft 476 kts 347°
2026-05-05 12:53 21.10427 7.68250 39770 ft 477 kts 346°
2026-05-05 12:53 21.17002 7.67289 39803 ft 476 kts 346°
2026-05-05 12:54 21.26801 7.65887 39800 ft 475 kts 347°
2026-05-05 12:55 21.33350 7.64968 39804 ft 475 kts 347°
2026-05-05 12:55 21.39907 7.64050 39803 ft 475 kts 347°
2026-05-05 12:56 21.46462 7.63130 39803 ft 474 kts 347°
2026-05-05 12:56 21.53002 7.62211 39803 ft 474 kts 347°
2026-05-05 12:57 21.59549 7.61290 39801 ft 474 kts 347°
2026-05-05 12:57 21.66097 7.60368 39804 ft 474 kts 347°
2026-05-05 12:58 21.72634 7.59447 39801 ft 474 kts 347°
2026-05-05 12:58 21.79176 7.58524 39801 ft 474 kts 347°
2026-05-05 12:59 21.85678 7.57606 39805 ft 474 kts 347°
2026-05-05 12:59 21.92208 7.56683 39805 ft 474 kts 347°
2026-05-05 13:00 22.02018 7.55296 39804 ft 473 kts 347°
2026-05-05 13:01 22.15056 7.53450 39815 ft 471 kts 347°
2026-05-05 13:01 22.21542 7.52529 39809 ft 470 kts 347°
2026-05-05 13:02 22.28019 7.51610 39813 ft 469 kts 347°
2026-05-05 13:02 22.34440 7.50697 39816 ft 468 kts 347°
2026-05-05 13:03 22.40892 7.49779 39815 ft 467 kts 347°
2026-05-05 13:03 22.47336 7.48861 39821 ft 467 kts 347°
2026-05-05 13:04 22.53769 7.47943 39822 ft 467 kts 347°
2026-05-05 13:04 22.60215 7.47024 39825 ft 467 kts 347°
2026-05-05 13:05 22.66659 7.46103 39825 ft 467 kts 347°
2026-05-05 13:05 22.73051 7.45190 39826 ft 466 kts 347°
2026-05-05 13:06 22.79494 7.44268 39826 ft 467 kts 347°
2026-05-05 13:06 22.85939 7.43344 39830 ft 467 kts 347°
2026-05-05 13:07 22.92379 7.42421 39834 ft 467 kts 346°
2026-05-05 13:07 22.98813 7.41498 39835 ft 466 kts 346°
2026-05-05 13:08 23.05253 7.40572 39839 ft 466 kts 346°
2026-05-05 13:08 23.11682 7.39648 39837 ft 466 kts 346°
2026-05-05 13:09 23.18125 7.38720 39838 ft 466 kts 346°
2026-05-05 13:09 23.24521 7.37799 39843 ft 466 kts 346°
2026-05-05 13:10 23.30950 7.36873 39845 ft 466 kts 346°
2026-05-05 13:10 23.37421 7.35939 39854 ft 466 kts 346°
2026-05-05 13:11 23.43837 7.35013 39853 ft 465 kts 346°
2026-05-05 13:11 23.50269 7.34082 39862 ft 465 kts 346°
2026-05-05 13:12 23.56672 7.33274 39863 ft 467 kts 348°
2026-05-05 13:12 23.63160 7.32639 39865 ft 468 kts 349°
2026-05-05 13:13 23.69630 7.32004 39867 ft 467 kts 348°
2026-05-05 13:13 23.76120 7.31334 39876 ft 467 kts 348°
2026-05-05 13:14 23.82581 7.30650 39873 ft 467 kts 348°
2026-05-05 13:14 23.89050 7.29962 39876 ft 467 kts 348°
2026-05-05 13:15 23.95515 7.29275 39875 ft 467 kts 348°
2026-05-05 13:15 24.01987 7.28588 39874 ft 467 kts 348°
2026-05-05 13:16 24.08455 7.27901 39880 ft 467 kts 348°
2026-05-05 13:16 24.14915 7.27214 39882 ft 467 kts 348°
2026-05-05 13:17 24.21385 7.26527 39875 ft 467 kts 348°
2026-05-05 13:17 24.27836 7.25840 39873 ft 466 kts 348°
2026-05-05 13:18 24.34247 7.25158 39873 ft 466 kts 348°
2026-05-05 13:18 24.40702 7.24468 39880 ft 466 kts 348°
2026-05-05 13:19 24.47157 7.23777 39874 ft 466 kts 348°
2026-05-05 13:19 24.53617 7.23086 39868 ft 466 kts 348°
2026-05-05 13:20 24.60076 7.22394 39870 ft 466 kts 348°
2026-05-05 13:20 24.66525 7.21703 39871 ft 466 kts 347°
2026-05-05 13:21 24.72979 7.21011 39868 ft 466 kts 347°
2026-05-05 13:21 24.79426 7.20318 39868 ft 465 kts 347°
2026-05-05 13:22 24.85865 7.19627 39875 ft 465 kts 347°
2026-05-05 13:22 24.92399 7.19550 39883 ft 478 kts 360°
2026-05-05 13:23 24.95705 7.20281 39978 ft 490 kts
2026-05-05 13:23 24.98889 7.21612 40147 ft 501 kts 19°
2026-05-05 13:23 25.01933 7.23565 40327 ft 509 kts 27°
2026-05-05 13:23 25.04836 7.25802 40525 ft 511 kts 30°
2026-05-05 13:24 25.07697 7.28151 40698 ft 512 kts 31°
2026-05-05 13:24 25.10531 7.30531 40858 ft 512 kts 31°
2026-05-05 13:24 25.16217 7.35288 40884 ft 512 kts 31°
2026-05-05 13:25 25.21932 7.39989 40889 ft 512 kts 30°
2026-05-05 13:25 25.27659 7.44662 40889 ft 512 kts 30°
2026-05-05 13:26 25.33358 7.49310 40887 ft 512 kts 30°
2026-05-05 13:26 25.39089 7.53991 40889 ft 512 kts 30°
2026-05-05 13:27 25.44808 7.58672 40880 ft 511 kts 30°
2026-05-05 13:27 25.50533 7.63364 40880 ft 511 kts 30°
2026-05-05 13:28 25.56246 7.68051 40875 ft 511 kts 30°
2026-05-05 13:28 25.61970 7.72754 40872 ft 512 kts 30°
2026-05-05 13:29 25.67652 7.77428 40871 ft 512 kts 30°
2026-05-05 13:29 25.73377 7.82142 40862 ft 512 kts 30°
2026-05-05 13:30 25.79097 7.86859 40851 ft 512 kts 30°
2026-05-05 13:30 25.84821 7.91583 40846 ft 512 kts 30°
2026-05-05 13:31 25.90537 7.96308 40837 ft 512 kts 30°
2026-05-05 13:31 25.96263 8.01046 40834 ft 512 kts 30°
2026-05-05 13:32 26.01965 8.05773 40831 ft 512 kts 30°
2026-05-05 13:32 26.07699 8.10489 40821 ft 512 kts 30°
2026-05-05 13:33 26.13431 8.15188 40820 ft 512 kts 30°
2026-05-05 13:33 26.19129 8.19873 40812 ft 513 kts 30°
2026-05-05 13:34 26.24838 8.24577 40806 ft 512 kts 30°
2026-05-05 13:34 26.30592 8.29329 40804 ft 512 kts 30°
2026-05-05 13:35 26.36306 8.34051 40800 ft 512 kts 30°
2026-05-05 13:35 26.42027 8.38786 40797 ft 512 kts 30°
2026-05-05 13:36 26.47725 8.43507 40813 ft 512 kts 30°
2026-05-05 13:36 26.53454 8.48261 40838 ft 512 kts 30°
2026-05-05 13:37 26.59170 8.53010 40862 ft 512 kts 30°
2026-05-05 13:37 26.64879 8.57758 40884 ft 512 kts 30°
2026-05-05 13:38 26.69623 8.61709 40891 ft 512 kts 30°
2026-05-05 13:38 26.75365 8.66400 40883 ft 509 kts 28°
2026-05-05 13:39 26.82199 8.71511 40869 ft 507 kts 26°
2026-05-05 13:39 26.87134 8.75169 40844 ft 508 kts 27°
2026-05-05 13:40 26.93004 8.79578 40825 ft 508 kts 27°
2026-05-05 13:40 26.98859 8.84017 40799 ft 508 kts 27°
2026-05-05 13:41 27.04720 8.88450 40776 ft 508 kts 27°
2026-05-05 13:41 27.10591 8.92880 40797 ft 508 kts 27°
2026-05-05 13:42 27.16456 8.97310 40788 ft 508 kts 27°
2026-05-05 13:42 27.22268 9.01707 40788 ft 508 kts 27°
2026-05-05 13:43 27.28130 9.06148 40790 ft 508 kts 27°
2026-05-05 13:43 27.33986 9.10591 40791 ft 508 kts 27°
2026-05-05 13:44 27.39839 9.15037 40786 ft 508 kts 27°
2026-05-05 13:44 27.45696 9.19493 40787 ft 507 kts 27°
2026-05-05 13:45 27.51540 9.23944 40788 ft 507 kts 27°
2026-05-05 13:45 27.57378 9.28394 40790 ft 507 kts 27°
2026-05-05 13:46 27.63222 9.32856 40791 ft 507 kts 27°
2026-05-05 13:46 27.69055 9.37317 40793 ft 506 kts 27°
2026-05-05 13:47 27.74854 9.41756 40800 ft 506 kts 27°
2026-05-05 13:47 27.80680 9.46222 40823 ft 506 kts 27°
2026-05-05 13:48 27.86508 9.50696 40861 ft 506 kts 27°
2026-05-05 13:48 27.92317 9.55161 40887 ft 506 kts 27°
2026-05-05 13:49 27.98150 9.59651 40911 ft 506 kts 27°
2026-05-05 13:49 28.03979 9.64143 40913 ft 506 kts 27°
2026-05-05 13:50 28.09976 9.68189 40913 ft 499 kts 21°
2026-05-05 13:50 28.16098 9.71912 40897 ft 499 kts 21°
2026-05-05 13:51 28.22202 9.75570 40876 ft 499 kts 21°
2026-05-05 13:51 28.28344 9.79258 40854 ft 499 kts 21°
2026-05-05 13:52 28.34488 9.82961 40833 ft 500 kts 21°
2026-05-05 13:52 28.40619 9.86667 40831 ft 500 kts 21°
2026-05-05 13:53 28.46755 9.90382 40833 ft 500 kts 21°
2026-05-05 13:53 28.52902 9.94107 40827 ft 500 kts 21°
2026-05-05 13:54 28.59049 9.97838 40847 ft 501 kts 21°
2026-05-05 13:54 28.65193 10.01571 40843 ft 501 kts 21°
2026-05-05 13:55 28.71347 10.05316 40845 ft 501 kts 21°
2026-05-05 13:55 28.77457 10.09038 40849 ft 501 kts 21°
2026-05-05 13:56 28.83604 10.12788 40845 ft 501 kts 21°
2026-05-05 13:56 28.89758 10.16547 40845 ft 502 kts 21°
2026-05-05 13:57 28.95909 10.20310 40839 ft 502 kts 21°
2026-05-05 13:57 29.02070 10.24084 40847 ft 502 kts 21°
2026-05-05 13:58 29.08224 10.27860 40843 ft 502 kts 21°
2026-05-05 13:58 29.14381 10.31642 40842 ft 502 kts 21°
2026-05-05 13:59 29.23608 10.37320 40843 ft 502 kts 21°
2026-05-05 14:00 29.31794 10.42367 40842 ft 502 kts 21°
2026-05-05 14:00 29.38997 10.46815 40844 ft 502 kts 21°
2026-05-05 14:01 29.45141 10.50615 40844 ft 502 kts 22°
2026-05-05 14:01 29.51297 10.54428 40844 ft 502 kts 22°
2026-05-05 14:02 29.57443 10.58240 40845 ft 502 kts 22°
2026-05-05 14:02 29.63554 10.62036 40846 ft 502 kts 22°
2026-05-05 14:03 29.69701 10.65859 40845 ft 502 kts 22°
2026-05-05 14:03 29.75851 10.69689 40847 ft 502 kts 22°
2026-05-05 14:04 29.81994 10.73520 40845 ft 502 kts 22°
2026-05-05 14:04 29.88138 10.77358 40850 ft 502 kts 22°
2026-05-05 14:05 29.94279 10.81199 40851 ft 502 kts 22°
2026-05-05 14:05 30.00426 10.85050 40858 ft 502 kts 22°
2026-05-05 14:06 30.06564 10.88900 40855 ft 502 kts 22°
2026-05-05 14:06 30.12703 10.92756 40857 ft 501 kts 22°
2026-05-05 14:07 30.18789 10.96585 40860 ft 501 kts 22°
2026-05-05 14:07 30.24952 11.00467 40862 ft 501 kts 22°
2026-05-05 14:08 30.31036 11.04304 40863 ft 501 kts 22°
2026-05-05 14:08 30.37155 11.08170 40864 ft 501 kts 22°
2026-05-05 14:09 30.43282 11.12046 40873 ft 501 kts 22°
2026-05-05 14:09 30.49393 11.15919 40880 ft 501 kts 22°
2026-05-05 14:10 30.55510 11.19799 40880 ft 501 kts 22°
2026-05-05 14:10 30.61620 11.23679 40886 ft 500 kts 21°
2026-05-05 14:11 30.67721 11.27558 40879 ft 500 kts 21°
2026-05-05 14:11 30.73834 11.31451 40888 ft 500 kts 21°
2026-05-05 14:12 30.79888 11.35311 40891 ft 500 kts 21°
2026-05-05 14:12 30.85995 11.39210 40893 ft 500 kts 21°
2026-05-05 14:13 30.92090 11.43108 40894 ft 500 kts 21°
2026-05-05 14:13 30.98190 11.47016 40898 ft 500 kts 22°
2026-05-05 14:14 31.04286 11.50926 40900 ft 500 kts 21°
2026-05-05 14:14 31.10394 11.54849 40906 ft 500 kts 22°
2026-05-05 14:15 31.16450 11.58746 40910 ft 500 kts 22°
2026-05-05 14:15 31.22538 11.62667 40909 ft 500 kts 22°
2026-05-05 14:16 31.28634 11.66597 40914 ft 500 kts 21°
2026-05-05 14:16 31.34723 11.70530 40918 ft 500 kts 22°
2026-05-05 14:17 31.40811 11.74472 40919 ft 500 kts 22°
2026-05-05 14:17 31.46897 11.78417 40922 ft 500 kts 22°
2026-05-05 14:18 31.52975 11.82362 40926 ft 499 kts 22°
2026-05-05 14:18 31.59047 11.86309 40933 ft 499 kts 22°
2026-05-05 14:19 31.65131 11.90269 40923 ft 499 kts 22°
2026-05-05 14:19 31.71174 11.94209 40933 ft 499 kts 22°
2026-05-05 14:20 31.77241 11.98170 40930 ft 499 kts 22°
2026-05-05 14:20 31.83308 12.02136 40922 ft 499 kts 22°
2026-05-05 14:21 31.89371 12.06107 40927 ft 499 kts 22°
2026-05-05 14:21 31.95438 12.10086 40927 ft 498 kts 22°
2026-05-05 14:22 32.01494 12.14065 40921 ft 498 kts 22°
2026-05-05 14:22 32.07551 12.18049 40921 ft 499 kts 22°
2026-05-05 14:23 32.13613 12.22042 40918 ft 499 kts 22°
2026-05-05 14:23 32.19663 12.26034 40918 ft 498 kts 22°
2026-05-05 14:24 32.24695 12.29359 40919 ft 498 kts 22°
2026-05-05 14:24 32.31734 12.34017 40922 ft 499 kts 22°
2026-05-05 14:25 32.36776 12.37359 40921 ft 499 kts 22°
2026-05-05 14:25 32.42831 12.41378 40926 ft 499 kts 22°
2026-05-05 14:26 32.48878 12.45399 40925 ft 499 kts 22°
2026-05-05 14:26 32.54935 12.49433 40932 ft 499 kts 22°
2026-05-05 14:27 32.60980 12.53464 40928 ft 499 kts 22°
2026-05-05 14:27 32.67031 12.57506 40936 ft 499 kts 22°
2026-05-05 14:28 32.73088 12.61558 40936 ft 499 kts 22°
2026-05-05 14:28 32.79270 12.65144 40944 ft 488 kts 12°
2026-05-05 14:29 32.85655 12.67687 40942 ft 486 kts 10°
2026-05-05 14:29 32.92109 12.70076 40945 ft 485 kts
2026-05-05 14:30 32.98556 12.72441 40946 ft 486 kts
2026-05-05 14:30 33.05026 12.74835 40948 ft 486 kts 10°
2026-05-05 14:31 33.11479 12.77231 40953 ft 486 kts
2026-05-05 14:31 33.17947 12.79595 40957 ft 486 kts
2026-05-05 14:32 33.24421 12.81957 40957 ft 486 kts
2026-05-05 14:32 33.30896 12.84329 40966 ft 486 kts
2026-05-05 14:33 33.37323 12.86690 40968 ft 486 kts
2026-05-05 14:33 33.43802 12.89075 40974 ft 487 kts
2026-05-05 14:34 33.50279 12.91463 40976 ft 487 kts 10°
2026-05-05 14:34 33.56742 12.93850 40979 ft 487 kts 10°
2026-05-05 14:35 33.63217 12.96244 40970 ft 487 kts 10°
2026-05-05 14:35 33.69695 12.98643 40983 ft 487 kts 10°
2026-05-05 14:36 33.76175 13.01048 40983 ft 488 kts 10°
2026-05-05 14:36 33.82624 13.03636 40994 ft 490 kts 12°
2026-05-05 14:37 33.89070 13.06356 40993 ft 490 kts 12°
2026-05-05 14:37 33.95506 13.09052 40997 ft 490 kts 12°
2026-05-05 14:38 34.01902 13.11705 40998 ft 490 kts 12°
2026-05-05 14:38 34.08355 13.14374 41003 ft 490 kts 12°
2026-05-05 14:39 34.14797 13.17043 41003 ft 490 kts 12°
2026-05-05 14:39 34.21243 13.19718 41004 ft 490 kts 12°
2026-05-05 14:40 34.27694 13.22402 41009 ft 490 kts 12°
2026-05-05 14:40 34.33900 13.26033 41013 ft 505 kts 28°
2026-05-05 14:41 34.39308 13.31637 41018 ft 515 kts 38°
2026-05-05 14:41 34.44372 13.37731 41019 ft 517 kts 40°
2026-05-05 14:42 34.49434 13.43918 41020 ft 517 kts 40°
2026-05-05 14:42 34.54524 13.50066 41023 ft 516 kts 39°
2026-05-05 14:43 34.59632 13.56196 41023 ft 516 kts 39°
2026-05-05 14:43 34.64739 13.62322 41027 ft 515 kts 39°
2026-05-05 14:44 34.69829 13.68442 41021 ft 515 kts 40°
2026-05-05 14:44 34.74888 13.74539 41028 ft 515 kts 40°
2026-05-05 14:45 34.79965 13.80669 41037 ft 514 kts 40°
2026-05-05 14:45 34.85042 13.86811 41037 ft 514 kts 40°
2026-05-05 14:46 34.90107 13.92950 41041 ft 514 kts 40°
2026-05-05 14:46 34.95165 13.99092 41044 ft 513 kts 40°
2026-05-05 14:47 35.00222 14.05243 41047 ft 513 kts 40°
2026-05-05 14:47 35.05263 14.11386 41054 ft 512 kts 40°
2026-05-05 14:48 35.10305 14.17542 41056 ft 512 kts 40°
2026-05-05 14:48 35.15335 14.23695 41057 ft 511 kts 40°
2026-05-05 14:49 35.20361 14.29855 41058 ft 511 kts 40°
2026-05-05 14:49 35.25344 14.35972 41065 ft 511 kts 41°
2026-05-05 14:50 35.30352 14.42132 41068 ft 510 kts 41°
2026-05-05 14:50 35.35356 14.48299 41068 ft 510 kts 41°
2026-05-05 14:51 35.40356 14.54473 41074 ft 510 kts 41°
2026-05-05 14:51 35.45342 14.60640 41077 ft 509 kts 41°
2026-05-05 14:52 35.50330 14.66821 41080 ft 509 kts 41°
2026-05-05 14:52 35.55310 14.73005 41078 ft 509 kts 41°
2026-05-05 14:53 35.60289 14.79198 41080 ft 509 kts 41°
2026-05-05 14:53 35.65225 14.85350 41079 ft 508 kts 41°
2026-05-05 14:54 35.70188 14.91546 41077 ft 508 kts 41°
2026-05-05 14:54 35.75143 14.97745 41076 ft 508 kts 41°
2026-05-05 14:55 35.80089 15.03943 41080 ft 507 kts 41°
2026-05-05 14:55 35.85033 15.10151 41079 ft 507 kts 41°
2026-05-05 14:56 35.89974 15.16368 41083 ft 507 kts 41°
2026-05-05 14:56 35.94901 15.22578 41081 ft 506 kts 41°
2026-05-05 14:57 35.99826 15.28797 41082 ft 506 kts 41°
2026-05-05 14:57 36.04739 15.35014 41089 ft 505 kts 41°
2026-05-05 14:58 36.09649 15.41238 41088 ft 505 kts 41°
2026-05-05 14:58 36.14518 15.47421 41089 ft 505 kts 41°
2026-05-05 14:59 36.19409 15.53644 41088 ft 504 kts 41°
2026-05-05 14:59 36.24303 15.59884 41091 ft 504 kts 41°
2026-05-05 15:00 36.28395 15.65110 41092 ft 504 kts 41°
2026-05-05 15:00 36.34054 15.72351 41093 ft 503 kts 41°
2026-05-05 15:01 36.38930 15.78603 41096 ft 503 kts 41°
2026-05-05 15:01 36.43797 15.84856 41094 ft 503 kts 41°
2026-05-05 15:02 36.48658 15.91117 41095 ft 503 kts 42°
2026-05-05 15:02 36.53203 15.97779 41093 ft 506 kts 46°
2026-05-05 15:03 36.57624 16.04612 41094 ft 507 kts 47°
2026-05-05 15:03 36.61991 16.11432 41099 ft 507 kts 47°
2026-05-05 15:04 36.66383 16.18287 41080 ft 507 kts 47°
2026-05-05 15:04 36.70785 16.25159 41093 ft 506 kts 47°
2026-05-05 15:05 36.77365 16.35446 41102 ft 506 kts 47°
2026-05-05 15:06 36.81743 16.42308 41098 ft 506 kts 47°
2026-05-05 15:06 36.86124 16.49190 41099 ft 505 kts 48°
2026-05-05 15:07 36.90492 16.56067 41099 ft 505 kts 48°
2026-05-05 15:07 36.94848 16.62938 41105 ft 505 kts 48°
2026-05-05 15:08 36.99206 16.69826 41103 ft 504 kts 48°
2026-05-05 15:08 37.03552 16.76711 41103 ft 504 kts 48°
2026-05-05 15:09 37.07922 16.83593 41108 ft 504 kts 47°
2026-05-05 15:09 37.12447 16.90197 41100 ft 503 kts 45°
2026-05-05 15:10 37.17059 16.96800 41105 ft 503 kts 45°
2026-05-05 15:10 37.21635 17.03437 41105 ft 503 kts 46°
2026-05-05 15:11 37.26196 17.10121 41107 ft 503 kts 46°
2026-05-05 15:11 37.30739 17.16810 41108 ft 503 kts 46°
2026-05-05 15:12 37.35281 17.23508 41106 ft 503 kts 46°
2026-05-05 15:12 37.39822 17.30216 41107 ft 503 kts 46°
2026-05-05 15:13 37.44341 17.36904 41104 ft 503 kts 46°
2026-05-05 15:13 37.48105 17.42484 41105 ft 502 kts 46°
2026-05-05 15:14 37.52622 17.49195 41107 ft 502 kts 46°
2026-05-05 15:14 37.57136 17.55913 41109 ft 502 kts 46°
2026-05-05 15:15 37.61609 17.62585 41113 ft 501 kts 46°
2026-05-05 15:15 37.66112 17.69314 41111 ft 501 kts 46°
2026-05-05 15:16 37.70607 17.76046 41099 ft 501 kts 46°
2026-05-05 15:16 37.75095 17.82780 41104 ft 501 kts 46°
2026-05-05 15:17 37.79580 17.89525 41108 ft 501 kts 46°
2026-05-05 15:17 37.84066 17.96285 41105 ft 501 kts 46°
2026-05-05 15:18 37.88542 18.03046 41107 ft 501 kts 46°
2026-05-05 15:18 37.93018 18.09819 41109 ft 501 kts 46°
2026-05-05 15:19 37.97491 18.16602 41109 ft 502 kts 47°
2026-05-05 15:19 38.01937 18.23358 41110 ft 502 kts 47°
2026-05-05 15:20 38.06415 18.30178 41108 ft 502 kts 47°
2026-05-05 15:20 38.10880 18.36992 41108 ft 502 kts 47°
2026-05-05 15:21 38.15342 18.43815 41111 ft 502 kts 47°
2026-05-05 15:21 38.19796 18.50641 41112 ft 501 kts 47°
2026-05-05 15:22 38.24215 18.57427 41109 ft 501 kts 47°
2026-05-05 15:22 38.28663 18.64271 41108 ft 501 kts 47°
2026-05-05 15:23 38.33103 18.71120 41112 ft 501 kts 47°
2026-05-05 15:23 38.37543 18.77981 41114 ft 501 kts 47°
2026-05-05 15:24 38.41978 18.84851 41112 ft 502 kts 47°
2026-05-05 15:24 38.46405 18.91722 41115 ft 502 kts 47°
2026-05-05 15:25 38.50832 18.98623 41116 ft 502 kts 49°
2026-05-05 15:25 38.54867 19.05866 41115 ft 505 kts 52°
2026-05-05 15:26 38.58809 19.13303 41113 ft 505 kts 53°
2026-05-05 15:26 38.62727 19.20769 41120 ft 505 kts 53°
2026-05-05 15:27 38.66640 19.28222 41114 ft 505 kts 53°
2026-05-05 15:27 38.70562 19.35691 41114 ft 505 kts 53°
2026-05-05 15:28 38.74473 19.43153 41117 ft 505 kts 53°
2026-05-05 15:28 38.78381 19.50625 41118 ft 505 kts 53°
2026-05-05 15:29 38.82290 19.58118 41118 ft 504 kts 53°
2026-05-05 15:29 38.86185 19.65601 41117 ft 505 kts 53°
2026-05-05 15:30 38.90055 19.73054 41118 ft 505 kts 53°
2026-05-05 15:30 38.93939 19.80551 41119 ft 505 kts 53°
2026-05-05 15:31 38.97820 19.88062 41119 ft 504 kts 53°
2026-05-05 15:31 39.01699 19.95584 41117 ft 504 kts 53°
2026-05-05 15:32 39.05572 20.03113 41118 ft 504 kts 53°
2026-05-05 15:32 39.09436 20.10641 41119 ft 504 kts 53°
2026-05-05 15:33 39.13291 20.18171 41118 ft 504 kts 53°
2026-05-05 15:33 39.17147 20.25719 41123 ft 504 kts 53°
2026-05-05 15:34 39.20994 20.33269 41109 ft 503 kts 53°
2026-05-05 15:34 39.24827 20.40808 41116 ft 503 kts 53°
2026-05-05 15:35 39.28651 20.48348 41115 ft 502 kts 53°
2026-05-05 15:35 39.32470 20.55896 41111 ft 502 kts 53°
2026-05-05 15:36 39.36264 20.63412 41112 ft 501 kts 53°
2026-05-05 15:36 39.40076 20.70982 41112 ft 502 kts 53°
2026-05-05 15:37 39.43882 20.78556 41109 ft 502 kts 53°
2026-05-05 15:37 39.47680 20.86132 41105 ft 503 kts 53°
2026-05-05 15:38 39.51486 20.93745 41105 ft 503 kts 53°
2026-05-05 15:38 39.55262 21.01313 41107 ft 503 kts 53°
2026-05-05 15:39 39.59060 21.08946 41107 ft 503 kts 53°
2026-05-05 15:39 39.62852 21.16583 41098 ft 504 kts 53°
2026-05-05 15:40 39.66644 21.24241 41103 ft 503 kts 53°
2026-05-05 15:40 39.70420 21.31886 41096 ft 504 kts 53°
2026-05-05 15:41 39.74191 21.39537 41081 ft 503 kts 53°
2026-05-05 15:41 39.77963 21.47206 41071 ft 502 kts 53°
2026-05-05 15:42 39.81716 21.54856 41062 ft 502 kts 53°
2026-05-05 15:42 39.85473 21.62536 41057 ft 502 kts 53°
2026-05-05 15:43 39.89194 21.70160 41053 ft 502 kts 53°
2026-05-05 15:43 39.92941 21.77855 41050 ft 502 kts 53°
2026-05-05 15:44 39.96674 21.85539 41059 ft 502 kts 53°
2026-05-05 15:44 40.00405 21.93241 41059 ft 502 kts 53°
2026-05-05 15:45 40.04124 22.00938 41061 ft 501 kts 53°
2026-05-05 15:45 40.07834 22.08637 41062 ft 501 kts 53°
2026-05-05 15:46 40.11543 22.16348 41051 ft 501 kts 53°
2026-05-05 15:46 40.15224 22.24016 41064 ft 500 kts 53°
2026-05-05 15:47 40.18911 22.31722 41040 ft 499 kts 53°
2026-05-05 15:47 40.22585 22.39418 41044 ft 498 kts 53°
2026-05-05 15:48 40.26250 22.47112 41032 ft 497 kts 53°
2026-05-05 15:48 40.29908 22.54813 41021 ft 497 kts 53°
2026-05-05 15:49 40.32980 22.62952 41010 ft 504 kts 68°
2026-05-05 15:49 40.34965 22.71789 41002 ft 506 kts 71°
2026-05-05 15:50 40.36744 22.80731 40997 ft 506 kts 71°
2026-05-05 15:50 40.38505 22.89649 40994 ft 505 kts 71°
2026-05-05 15:51 40.40273 22.98498 40994 ft 504 kts 71°
2026-05-05 15:51 40.42060 23.07401 40995 ft 503 kts 71°
2026-05-05 15:52 40.43840 23.16290 40995 ft 503 kts 71°
2026-05-05 15:52 40.45609 23.25177 41000 ft 503 kts 71°
2026-05-05 15:53 40.47370 23.34062 41000 ft 503 kts 71°
2026-05-05 15:53 40.49127 23.42971 41009 ft 503 kts 72°
2026-05-05 15:54 40.50872 23.51856 41011 ft 503 kts 72°
2026-05-05 15:54 40.52613 23.60760 41012 ft 502 kts 72°
2026-05-05 15:55 40.54344 23.69648 41013 ft 502 kts 72°
2026-05-05 15:55 40.56070 23.78552 41018 ft 502 kts 72°
2026-05-05 15:56 40.57786 23.87454 41022 ft 502 kts 72°
2026-05-05 15:56 40.59497 23.96358 41022 ft 502 kts 72°
2026-05-05 15:57 40.61381 24.05138 41025 ft 500 kts 69°
2026-05-05 15:57 40.63510 24.13848 41024 ft 500 kts 68°
2026-05-05 15:58 40.65624 24.22581 41027 ft 500 kts 69°
2026-05-05 15:58 40.67684 24.31335 41033 ft 500 kts 69°
2026-05-05 15:59 40.69721 24.40114 41037 ft 501 kts 70°
2026-05-05 15:59 40.71736 24.48839 41040 ft 501 kts 70°
2026-05-05 16:00 40.73771 24.57677 41168 ft 501 kts 70°
2026-05-05 16:00 40.74766 24.62007 41041 ft 500 kts 70°
2026-05-05 16:00 40.75776 24.66408 41045 ft 501 kts 70°
2026-05-05 16:01 40.77788 24.75202 41053 ft 500 kts 70°
2026-05-05 16:01 40.79793 24.83999 41043 ft 500 kts 70°
2026-05-05 16:02 40.81791 24.92798 41041 ft 499 kts 70°
2026-05-05 16:02 40.83442 25.00096 41038 ft 499 kts 70°
2026-05-05 16:03 40.85423 25.08879 41036 ft 498 kts 70°
2026-05-05 16:03 40.87713 25.19079 41047 ft 498 kts 70°
2026-05-05 16:04 40.89354 25.26417 41034 ft 497 kts 71°
2026-05-05 16:04 40.91303 25.35178 41036 ft 497 kts 71°
2026-05-05 16:05 40.93249 25.43930 41037 ft 496 kts 71°
2026-05-05 16:05 40.95181 25.52640 41039 ft 496 kts 71°
2026-05-05 16:06 40.97110 25.61378 40820 ft 491 kts 71°
2026-05-05 16:06 40.98060 25.65707 40268 ft 489 kts 71°
2026-05-05 16:06 40.99020 25.70083 39683 ft 489 kts 70°
2026-05-05 16:06 40.99955 25.74353 39142 ft 488 kts 70°
2026-05-05 16:07 41.00894 25.78651 38554 ft 486 kts 70°
2026-05-05 16:07 41.01831 25.82948 37886 ft 485 kts 70°
2026-05-05 16:07 41.02767 25.87246 37128 ft 486 kts 70°
2026-05-05 16:07 41.03700 25.91534 36375 ft 486 kts 70°
2026-05-05 16:08 41.04637 25.95847 35647 ft 486 kts 70°
2026-05-05 16:08 41.05571 26.00153 34938 ft 486 kts 70°
2026-05-05 16:08 41.06502 26.04456 34237 ft 486 kts 70°
2026-05-05 16:08 41.07435 26.08774 33466 ft 486 kts 70°
2026-05-05 16:09 41.08364 26.13070 32589 ft 487 kts 70°
2026-05-05 16:09 41.09300 26.17409 31701 ft 489 kts 70°
2026-05-05 16:09 41.10231 26.21737 30835 ft 490 kts 70°
2026-05-05 16:09 41.11104 26.26130 29896 ft 494 kts 75°
2026-05-05 16:10 41.11492 26.30674 28978 ft 500 kts 85°
2026-05-05 16:10 41.11179 26.35285 28266 ft 501 kts 98°
2026-05-05 16:10 41.10162 26.39685 27596 ft 500 kts 108°
2026-05-05 16:10 41.08841 26.43951 27039 ft 494 kts 110°
2026-05-05 16:11 41.07520 26.48095 26722 ft 483 kts 110°
2026-05-05 16:11 41.03869 26.59950 25874 ft 446 kts 102°
2026-05-05 16:12 41.03433 26.63918 25596 ft 429 kts 87°
2026-05-05 16:12 41.03563 26.71611 25032 ft 409 kts 84°
2026-05-05 16:13 41.03806 26.82746 23777 ft 398 kts 85°
2026-05-05 16:13 41.03883 26.86401 23281 ft 395 kts 83°
2026-05-05 16:13 41.04307 26.89939 22741 ft 385 kts 68°
2026-05-05 16:14 41.06781 26.96025 21775 ft 371 kts 55°
2026-05-05 16:14 41.09463 27.01799 20787 ft 365 kts 55°
2026-05-05 16:15 41.12086 27.07499 19856 ft 359 kts 56°
2026-05-05 16:15 41.14652 27.13106 19060 ft 350 kts 55°
2026-05-05 16:16 41.17087 27.18480 18675 ft 330 kts 57°
2026-05-05 16:16 41.17828 27.24346 18169 ft 336 kts 99°
2026-05-05 16:17 41.14966 27.29248 17318 ft 349 kts 140°
2026-05-05 16:17 41.13213 27.31470 16486 ft 350 kts 120°
2026-05-05 16:18 41.12054 27.37585 14937 ft 348 kts 88°
2026-05-05 16:18 41.11882 27.40822 14209 ft 356 kts 91°
2026-05-05 16:18 41.11184 27.47613 14021 ft 393 kts 95°
2026-05-05 16:19 41.10712 27.51211 14008 ft 398 kts 96°
2026-05-05 16:19 41.10207 27.54816 14007 ft 397 kts 96°
2026-05-05 16:19 41.09166 27.62003 14009 ft 396 kts 96°
2026-05-05 16:20 41.08106 27.69168 14017 ft 396 kts 97°
2026-05-05 16:20 41.07040 27.76315 14021 ft 395 kts 97°
2026-05-05 16:21 41.05967 27.83474 14027 ft 395 kts 97°
2026-05-05 16:22 41.04348 27.94218 12570 ft 398 kts 97°
2026-05-05 16:22 41.03275 28.01278 11264 ft 386 kts 97°
2026-05-05 16:23 41.02220 28.08200 9809 ft 381 kts 97°
2026-05-05 16:23 41.01713 28.11470 9082 ft 354 kts 97°
2026-05-05 16:23 41.00785 28.17381 8022 ft 305 kts 97°
2026-05-05 16:24 41.00373 28.20041 7609 ft 285 kts 96°
2026-05-05 16:24 40.99991 28.22533 7224 ft 269 kts 96°
2026-05-05 16:24 40.99279 28.27301 6759 ft 258 kts 96°
2026-05-05 16:25 40.98929 28.29612 6507 ft 254 kts 96°
2026-05-05 16:25 40.98247 28.34151 5944 ft 249 kts 95°
2026-05-05 16:25 40.97913 28.36395 5653 ft 247 kts 95°
2026-05-05 16:26 40.96755 28.40688 5081 ft 250 kts 114°
2026-05-05 16:26 40.95031 28.44656 4993 ft 249 kts 115°
2026-05-05 16:27 40.94169 28.46644 4998 ft 250 kts 115°
2026-05-05 16:27 40.93304 28.48641 4994 ft 249 kts 115°
2026-05-05 16:27 40.92443 28.50631 4996 ft 249 kts 115°
2026-05-05 16:27 40.91594 28.52596 4996 ft 249 kts 115°
2026-05-05 16:28 40.90724 28.54607 4997 ft 249 kts 115°
2026-05-05 16:28 40.89878 28.56597 5000 ft 248 kts 113°
2026-05-05 16:28 40.89371 28.58726 4991 ft 239 kts 89°
2026-05-05 16:28 40.89592 28.60819 5002 ft 231 kts 68°
2026-05-05 16:29 40.90102 28.62823 4995 ft 230 kts 65°
2026-05-05 16:29 40.90636 28.64814 4996 ft 230 kts 65°
2026-05-05 16:29 40.91172 28.66805 4996 ft 230 kts 64°
2026-05-05 16:29 40.91863 28.68689 4991 ft 225 kts 49°
2026-05-05 16:30 40.92986 28.70008 5004 ft 208 kts 28°
2026-05-05 16:30 40.94198 28.70917 5000 ft 193 kts 25°
2026-05-05 16:30 40.95334 28.71728 5033 ft 179 kts 24°
2026-05-05 16:30 40.96428 28.72504 5033 ft 180 kts 24°
2026-05-05 16:31 40.97569 28.73156 5004 ft 178 kts 11°
2026-05-05 16:31 40.98805 28.73285 5002 ft 177 kts 360°
2026-05-05 16:31 41.00040 28.73271 4997 ft 178 kts 358°
2026-05-05 16:31 41.01265 28.73245 4997 ft 171 kts 358°
2026-05-05 16:32 41.02393 28.73221 5011 ft 154 kts 358°
2026-05-05 16:32 41.03450 28.73207 4935 ft 150 kts 359°
2026-05-05 16:32 41.04472 28.73198 4735 ft 147 kts 359°
2026-05-05 16:32 41.05507 28.73178 4506 ft 147 kts 358°
2026-05-05 16:33 41.06483 28.73157 4294 ft 146 kts 358°
2026-05-05 16:33 41.07532 28.73135 4081 ft 148 kts 358°
2026-05-05 16:33 41.08580 28.73114 3859 ft 149 kts 358°
2026-05-05 16:33 41.09612 28.73097 3654 ft 149 kts 359°
2026-05-05 16:34 41.10641 28.73079 3458 ft 150 kts 359°
2026-05-05 16:34 41.11683 28.73056 3248 ft 149 kts 359°
2026-05-05 16:34 41.12720 28.73036 3045 ft 148 kts 359°
2026-05-05 16:34 41.13752 28.73016 2852 ft 148 kts 359°
2026-05-05 16:35 41.14782 28.72996 2649 ft 148 kts 359°
2026-05-05 16:35 41.15795 28.72975 2440 ft 148 kts 359°
2026-05-05 16:35 41.16840 28.72952 2234 ft 148 kts
2026-05-05 16:35 41.17873 28.72937 2030 ft 148 kts
2026-05-05 16:36 41.18897 28.72916 1827 ft 145 kts
2026-05-05 16:36 41.19862 28.72899 1642 ft 136 kts
2026-05-05 16:36 41.20816 28.72882 1459 ft 136 kts 360°
2026-05-05 16:36 41.21749 28.72862 1265 ft 136 kts 359°
2026-05-05 16:37 41.22705 28.72843 1060 ft 138 kts
2026-05-05 16:37 41.23674 28.72825 858 ft 140 kts
2026-05-05 16:37 41.24648 28.72794 665 ft 140 kts 358°
2026-05-05 16:37 41.25623 28.72770 475 ft 139 kts
2026-05-05 16:38 41.26605 28.72764 359 ft 140 kts 358°
2026-05-05 16:38 41.27441 28.72749 336 ft 85 kts 358°
2026-05-05 16:38 41.27846 28.72741 339 ft 48 kts
2026-05-05 16:38 41.28082 28.72846 337 ft 9 kts 30°
2026-05-05 16:39 41.28121 28.72876 336 ft 8 kts 30°
2026-05-05 16:39 41.28143 28.72918 337 ft 3 kts 85°
2026-05-05 16:39 41.28127 28.72944 335 ft 4 kts 144°
2026-05-05 16:39 41.28089 28.72956 339 ft 7 kts 174°
2026-05-05 16:40 41.28026 28.72960 337 ft 11 kts 178°
2026-05-05 16:40 41.27938 28.72963 337 ft 14 kts 179°
2026-05-05 16:40 41.27827 28.72965 336 ft 18 kts 179°
2026-05-05 16:40 41.27694 28.72969 339 ft 21 kts 179°
2026-05-05 16:41 41.27542 28.72973 336 ft 24 kts 179°
2026-05-05 16:41 41.27372 28.72977 339 ft 25 kts 179°
2026-05-05 16:41 41.27202 28.72981 338 ft 26 kts 179°
2026-05-05 16:41 41.27048 28.72985 336 ft 21 kts 179°
2026-05-05 16:42 41.26968 28.73024 338 ft 11 kts 124°
2026-05-05 16:42 41.26953 28.73140 340 ft 14 kts 89°
2026-05-05 16:42 41.26949 28.73278 338 ft 15 kts 109°
2026-05-05 16:42 41.26857 28.73330 338 ft 13 kts 178°
2026-05-05 16:43 41.26771 28.73333 339 ft 11 kts 179°
2026-05-05 16:43 41.26714 28.73359 335 ft 7 kts 123°
2026-05-05 16:43 41.26705 28.73427 337 ft 0 kts 92°
2026-05-05 16:44 41.26705 28.73435 337 ft 4 kts 92°
2026-05-05 16:44 41.26705 28.73450 339 ft 0 kts 91°